Starlink 32280

operational
NORAD ID: 60736 Int'l Des: 2024-152 Owner: SPXS Country: US Constellation: starlink
LEOCIRCULAR

Über Starlink 32280

Beschreibung wird geladen...

Live-Position

3D-Globus wird geladen...

Nächste Überflüge

Höhenverlauf

Altitude vs Time

uPlot chart will show altitude changes over time

Zweizeiliger Elementsatz

1 60736U 24152S 25260.26557037 .00102970 00000-0 17428-2 0 9999
2 60736 53.1518 349.3475 0013790 344.0963 15.9611 15.50673703 60322
Epoch: 17. Sept. 2025 • Age: 16 hours

Aktueller Status

Höhe 427.5 km
Geschwindigkeit 7.65 km/s
Subsatellitenpunkt -21.44°S, 154.98°W
Startdatum 28. Aug. 2024
Alter 1 years
Typ internet

Technische Details

Klassifizierung Payload
Masse 730.00 kg
Trockenmasse 700.00 kg
Gesamtmasse 730.00 kg
Länge 0.30 m
Durchmesser 4.10 m
Spannweite 29.00 m
Form Box + pan
Hersteller SPXS
Bus-Typ Starlink V2M
Phasenstatus In Orbit
Besitzer/Staat SPXS/US

Große Konstellationen

Loading constellations...